Starlink 30320

operational
NORAD ID: 57678 Int'l Des: 2023-124 Owner: SPXS Country: US Constellation: starlink
LEOCIRCULAR

Über Starlink 30320

Beschreibung wird geladen...

Live-Position

3D-Globus wird geladen...

Nächste Überflüge

Höhenverlauf

Altitude vs Time

uPlot chart will show altitude changes over time

Zweizeiliger Elementsatz

1 57678U 23124R 25352.93048176 .00000324 00000-0 23072-4 0 9997
2 57678 53.1596 209.1689 0001337 90.3265 269.7889 15.30187562131381
Epoch: 18. Dez. 2025 • Age: 18 hours

Aktueller Status

Höhe 476.9 km
Geschwindigkeit 7.63 km/s
Subsatellitenpunkt 33.69°N, 24.91°E
Startdatum 22. Aug. 2023
Alter 2.3 years
Typ internet

Technische Details

Klassifizierung Payload
Masse 730.00 kg
Trockenmasse 700.00 kg
Gesamtmasse 730.00 kg
Länge 0.30 m
Durchmesser 4.10 m
Spannweite 29.00 m
Form Box + pan
Hersteller SPXS
Bus-Typ Starlink V2M
Phasenstatus In Orbit
Besitzer/Staat SPXS/US

Große Konstellationen

Loading constellations...